STARLINK-1231, 45212

Orbit data source: Space-Track

STARLINK-1231, 45212 is a payload satellite owned by SpaceX/Seattle (US) in LEO that was launched on Mon, 17 Feb 2020 UTC via an FALCON 9 launch vehicle from the Air Force Eastern Test Range (AFETR). Payload-class satellites include a variety of spacecraft equipped with specific instruments for various scientific and technological missions. These include communications satellites like Starlink; space stations such as the ISS; scientific satellites like the Hubble; Earth observation satellites from companies like Planet Labs, Umbra, and HawkEye 360; GPS; miniature CubeSats for education and research; and military/defense satellites.

Loading next visibility...
Identifier
45212, 2020-012AL
Orbit
LEO
Country
Flag of USUS
Related business
Manufacturer
SpaceX/Seattle
Mission
Partially operational Commercial Communications
Bus & Motor
STARLINK, Unknown motor
Mass
260 kg wet, ~248 kg dry
Launch date (UTC)
2020-02-17 (6 years ago)
Launch vehicle
FALCON 9
Launch site
Air Force Eastern Test Range (AFETR)
Object type
Payload
Rocket body
Debris
Shape & HBR
Box + 1 Pan, 10.1 m
Radar Cross Section
13.562 m², Large (>1 m²)

Expand to show TLE details & history
Last TLE update: 6 hours ago

TLE from 6 hours ago
0 STARLINK-1231
1 45212U 20012AL  25308.47101179  .00018802  00000-0  10801-2 0  9998
2 45212  53.0510 226.9156 0006975  60.0939 300.0745 15.12540511316223
Epoch: 2025-11-04T11:18Z
TLE epoch observation values (Epoch: 2025-11-04T11:18:15.418Z)
Latitude
-0.00001°
Longitude
13.39379°
Altitude
526.925 km
Speed
7.602 km/s
True Right ascension
15h 07m 39s
True Declination
0° 00' 00"
Sunlit
Object was in daylight at epoch
Visualization orbit readout
Latitude
Unknown
Longitude
Unknown
Altitude
Unknown
Speed
Unknown
Apparent Right ascension
Unknown
Apparent Declination
Unknown
Sunlit
N/A
Visualization observer readout
Local Sidereal Time
13:03:16
Azimuth
Unknown
Elevation
Unknown
Doppler factor
Unknown
Orbital elements
Apogee altitude
533.545 km
Perigee altitude
523.91 km
Semi-major axis
6,906.864 km
Eccentricity
0.0007
Inclination
53.051°
RAAN
226.9156°
Arg. of periapsis
60.0939°
True anomaly
300.0053°
Mean anomaly
300.0745°
Eccentric anomaly
300.0399°
Mean motion
3.78113 °/min
Orbital period
95.21 mins
BSTAR
0.0010801
Loading maneuver chart data...
Computing Atmospheric mass density...

Documentation

Showing up to 5 results
|